RH
18 18 20 20 17 20 24 20 19 18 19 22 25 24 26 26 25 26 30 30 27 24 23 24 27 30 33 32 38 37 32 29 28 28 27 34 42 40 35 35 34 38 42
17 16 16 18 21 17 15 22 21 22 22 21 18 20 23 21 27 29 26 26 28 30 35 31 30 29 28 26 28 36 30 30 29 27 30 32 32 32 39 43 36 39 49
24 20 18 16 16 16 17 16 22 27 25 25 32 25 25 26 22 19 21 28 33 32 33 31 37 38 37 34 30 28 32 37 37 36 36 33 33 33 34 42 42 56 73
22 22 22 21 19 18 17 18 16 17 21 22 23 27 30 38 42 40 31 27 28 33 46 50 47 46 48 48 45 44 40 38 42 41 42 36 37 37 41 49 58 100 97
28 26 25 25 24 25 25 21 21 24 24 26 25 24 30 34 33 39 54 54 47 54 55 52 52 51 66 66 61 57 53 48 44 44 44 44 45 43 48 57 98 79 83
32 31 31 32 35 34 32 31 29 26 27 29 29 27 30 34 38 50 54 70 79 81 83 87 80 80 77 77 83 79 70 68 64 58 53 57 58 60 69 100 73 66 84
40 38 36 38 40 38 32 30 37 34 30 27 25 31 33 33 39 47 54 78 93 98 95 90 85 89 79 86 83 79 89 77 66 68 58 63 73 76 98 93 69 79 77
41 42 41 40 38 36 34 29 34 30 26 25 26 25 25 29 38 47 66 83 95 100 99 98 100 95 95 96 95 94 91 91 91 84 70 72 75 74 100 98 96 93 92
37 38 39 37 36 36 36 34 34 32 31 32 31 30 31 31 34 47 71 95 99 98 99 100 100 100 100 100 99 100 100 100 100 98 90 79 82 100 94 100 100 100 87
29 31 40 40 38 36 38 37 36 34 31 29 29 30 32 38 40 45 47 67 85 100 100 100 100 100 100 100 100 100 100 100 100 100 90 100 100 100 100 100 100 100 87
28 29 37 39 40 38 37 35 31 28 26 24 24 26 30 41 44 44 47 54 56 77 99 100 100 100 100 100 100 100 100 100 100 86 100 100 100 100 95 100 100 78 69
32 33 33 33 31 28 26 26 24 22 21 19 22 31 32 34 33 39 44 45 45 51 56 75 83 100 100 100 99 100 98 100 100 86 89 84 84 100 100 92 71 63 63
41 38 35 34 35 35 34 30 25 21 18 18 18 22 24 26 27 27 27 28 31 29 29 35 43 69 100 100 93 100 100 100 100 98 87 100 100 99 88 75 57 55 64
49 47 52 46 40 36 32 28 26 21 16 14 15 16 16 15 15 16 17 19 18 19 19 18 21 22 27 50 96 98 81 88 84 87 90 99 92 82 65 54 49 48 67
46 47 42 41 36 31 28 26 23 20 15 14 13 14 14 14 13 13 12 11 11 12 16 16 16 16 18 20 22 26 24 39 68 66 72 87 81 59 48 50 45 47 45
39 38 36 34 28 24 21 19 17 15 14 14 13 14 14 18 21 20 17 14 13 14 16 17 16 15 15 14 16 17 20 29 38 50 48 46 42 37 30 27 29 71 75
32 32 31 28 27 24 22 19 17 15 16 16 17 15 17 17 20 19 20 18 15 14 15 18 17 17 17 16 17 16 16 16 18 18 20 20 18 19 23 43 66 80 89
39 33 34 32 29 28 25 24 23 21 20 23 25 26 24 28 26 25 27 22 18 17 17 19 18 19 20 20 20 20 20 19 20 20 22 24 18 19 18 24 33 61 87
47 47 37 36 33 33 28 27 34 31 27 24 36 37 31 30 28 24 19 20 22 20 19 18 18 18 19 21 21 23 24 22 21 20 22 21 20 20 20 29 43 72 79
54 54 54 43 40 45 40 34 36 44 38 39 56 44 37 40 34 28 26 21 18 22 29 25 20 21 19 19 20 22 22 21 21 21 20 22 24 24 25 26 32 60 68
61 61 58 59 52 54 61 54 58 48 49 46 41 46 43 35 36 35 32 25 20 20 21 25 33 32 26 22 24 27 21 20 21 22 21 22 23 21 20 26 28 34 37
80 83 69 54 56 60 67 72 54 60 75 73 68 49 71 56 39 30 30 30 28 23 22 24 28 31 37 34 32 30 26 24 24 30 29 24 27 25 24 25 23 26 36
71 75 85 68 53 52 57 60 75 65 50 70 66 48 49 50 49 36 29 28 30 30 27 25 26 38 39 34 34 33 31 29 30 43 38 30 32 34 31 31 28 28 37
79 75 71 74 64 55 52 54 65 81 69 58 65 75 87 72 63 46 38 35 32 28 28 27 26 27 30 34 41 50 48 46 48 53 52 45 42 43 38 37 35 39 45
78 72 71 70 69 61 56 61 60 70 84 75 65 74 91 70 53 62 45 37 34 30 32 32 30 29 31 33 36 42 52 60 60 53 66 64 57 58 60 49 36 36 43
75 72 66 68 71 66 64 58 75 94 92 80 84 68 69 65 60 71 61 48 44 38 34 38 34 33 32 32 34 41 58 71 71 70 79 86 71 61 53 50 48 38 37
Wind_Speed
38 36 34 34 33 34 34 34 35 36 36 35 34 35 34 34 35 37 38 39 40 40 41 39 40 40 42 42 42 42 42 43 43 43 44 44 47 47 48 48 47 45 48
43 41 41 40 40 38 38 38 38 39 39 38 37 36 37 38 37 37 38 40 43 44 45 47 47 47 47 47 46 48 47 46 49 48 47 47 48 48 49 49 49 49 50
47 47 47 47 47 46 43 44 45 44 43 43 42 41 40 41 42 43 44 44 44 44 47 50 51 52 51 51 51 51 51 50 51 48 48 47 48 49 48 49 50 51 53
52 52 51 51 51 50 48 47 48 48 48 47 46 47 47 48 49 49 49 49 49 50 49 49 50 53 54 54 54 53 53 51 51 49 51 50 50 51 50 51 53 56 57
54 54 54 54 53 50 49 51 50 50 51 51 51 52 53 55 56 56 56 55 54 53 55 55 54 54 55 56 56 55 54 53 53 53 55 55 53 55 55 56 53 52 51
56 54 54 54 53 52 52 54 55 54 54 57 58 59 59 60 60 60 61 61 61 59 58 58 59 58 56 58 59 58 57 55 56 57 57 57 58 59 59 58 55 59 57
57 56 57 57 56 56 58 58 58 59 60 61 62 64 65 66 66 66 66 65 65 64 65 63 62 63 62 61 61 63 61 61 59 61 61 62 61 63 62 58 61 61 58
61 60 61 63 61 62 63 62 62 63 66 66 67 67 69 71 72 71 71 70 69 69 69 69 68 68 68 67 66 67 67 67 67 66 64 65 63 67 62 60 61 58 57
64 65 63 66 69 69 70 67 66 66 66 67 69 72 73 75 76 76 75 75 74 74 74 73 73 73 72 71 71 72 71 71 73 72 70 68 70 67 63 62 64 62 65
67 66 68 68 68 68 67 70 71 71 71 72 75 76 78 79 80 80 80 78 78 76 75 74 76 77 75 72 71 76 74 75 76 76 76 74 71 69 64 65 65 69 71
69 67 67 68 67 68 69 72 74 76 76 76 76 77 80 82 83 84 83 83 83 82 81 79 78 78 76 77 77 76 73 72 79 75 73 75 70 66 65 65 70 74 76
72 71 72 72 72 73 73 74 75 75 77 80 78 78 79 82 81 82 85 85 85 84 85 84 84 79 79 74 74 67 63 67 69 71 68 71 66 67 68 72 76 76 75
71 73 74 74 72 72 73 73 74 74 75 77 78 79 79 77 78 79 81 81 82 81 81 84 86 86 85 84 81 79 80 78 78 74 72 67 72 74 77 80 81 82 76
70 70 68 70 71 75 77 76 75 74 75 74 74 75 73 72 72 73 74 72 73 72 73 75 75 78 81 85 89 87 91 87 91 89 87 84 81 82 83 83 82 77 70
71 69 72 70 69 70 73 73 73 75 71 69 67 68 67 67 69 71 72 70 69 67 68 69 70 70 70 71 74 77 80 78 80 81 82 84 86 82 81 81 77 73 77
69 69 70 71 67 66 67 67 68 67 64 64 64 66 64 64 66 70 69 71 71 71 70 70 70 69 68 66 65 66 66 66 70 71 71 73 76 76 74 71 66 58 57
72 67 66 65 62 64 65 66 64 63 62 64 64 63 62 64 65 65 65 68 70 72 73 74 73 71 68 66 65 63 61 61 61 62 61 60 59 58 58 57 57 57 55
70 70 63 61 63 61 62 60 60 58 57 61 61 61 61 64 61 60 62 65 67 70 72 75 75 73 70 68 65 63 60 59 58 58 58 58 56 57 58 58 60 60 57
67 64 62 58 57 56 54 52 54 56 58 60 58 58 61 63 61 62 61 61 63 66 70 74 77 75 74 71 68 66 63 61 59 58 58 58 57 59 59 58 58 57 56
68 66 63 57 55 56 55 50 49 48 53 55 56 57 58 59 59 62 62 62 61 63 66 70 73 75 76 74 73 71 67 65 62 62 60 58 58 59 58 60 59 56 56
69 67 66 64 60 59 61 54 47 48 50 50 51 52 54 56 58 60 62 62 63 63 63 65 68 71 73 74 75 73 72 70 68 67 64 62 61 61 60 60 61 60 59
73 74 71 71 69 62 61 61 52 52 51 50 49 50 49 52 54 58 62 62 63 63 61 62 65 66 69 71 73 74 74 73 70 69 68 66 64 64 65 64 63 61 61
77 77 76 74 72 70 66 62 57 58 57 55 55 55 53 52 54 57 58 60 63 64 62 61 62 65 66 67 69 72 73 73 72 71 70 69 68 67 67 67 66 65 63
79 80 79 75 73 70 69 68 62 62 61 57 57 55 54 53 50 54 56 57 61 60 62 63 62 63 64 66 67 70 72 73 74 73 73 72 71 70 69 69 68 68 66
79 78 79 79 77 74 68 68 69 67 65 61 59 55 57 56 55 56 56 56 60 59 57 61 63 65 66 67 68 70 73 74 75 74 75 74 74 73 73 73 72 71 70
85 83 81 82 82 77 70 69 70 70 69 63 59 58 59 62 59 59 61 58 57 58 56 59 61 63 66 69 70 70 71 74 75 76 76 77 77 79 79 78 77 76 75
Wind_Direction
258 258 260 262 260 256 255 257 256 255 256 258 262 265 270 272 274 275 270 268 270 270 270 270 272 273 273 275 277 279 282 283 284 287 288 287 287 289 289 290 292 292 291
259 261 263 267 268 268 267 265 259 259 260 262 266 267 271 271 273 272 273 274 275 275 273 274 273 272 273 272 275 276 279 281 284 285 284 284 283 286 288 292 292 293 295
258 261 265 266 268 268 265 265 265 264 265 266 268 270 272 273 273 275 275 275 273 272 274 276 276 276 276 277 276 276 278 280 281 281 281 284 284 286 290 290 293 295 294
259 261 263 264 264 264 266 267 266 266 267 268 270 272 275 275 276 275 272 272 274 276 275 273 275 274 276 277 277 278 280 280 280 280 281 285 285 288 290 290 291 295 292
256 258 261 261 260 261 266 269 267 267 271 271 273 274 275 278 279 278 278 277 274 273 276 278 274 276 275 276 278 278 279 281 281 282 284 286 286 286 287 289 295 296 293
257 258 259 257 258 260 263 266 268 269 269 272 275 276 275 276 278 276 275 276 277 276 275 275 278 277 277 277 277 279 280 280 280 283 283 284 287 286 288 292 293 297 293
258 258 259 255 258 263 269 268 266 268 271 272 272 272 273 274 275 274 274 273 273 274 275 276 276 277 279 278 279 278 278 280 280 281 283 284 285 286 292 291 291 294 293
259 258 259 258 263 268 270 270 269 270 272 273 272 272 272 271 271 271 271 271 271 272 273 272 273 273 272 273 275 276 278 276 277 278 279 283 283 285 292 290 292 288 291
259 257 257 259 263 265 268 269 269 271 271 272 271 271 271 270 269 269 270 271 271 272 273 272 273 273 273 273 274 273 273 277 278 280 280 281 285 288 287 287 284 287 296
259 258 258 260 263 264 266 267 268 270 271 273 272 271 271 270 269 267 267 266 268 270 271 271 271 271 273 275 274 276 274 275 276 278 282 282 286 286 285 284 283 287 295
260 261 260 261 262 264 265 267 269 271 273 274 274 272 269 268 267 268 269 268 268 269 270 269 271 272 273 272 274 276 275 279 277 281 284 282 283 280 280 283 287 291 292
261 262 261 262 265 267 267 268 269 270 272 273 272 270 270 270 269 267 268 268 269 270 271 270 271 270 271 272 274 270 275 279 279 281 284 278 279 279 280 285 289 292 292
263 265 266 266 266 268 268 268 268 270 270 271 270 268 268 269 269 269 269 270 269 269 270 269 267 268 269 270 270 270 275 279 280 281 278 278 277 281 284 287 290 290 288
267 265 267 268 269 270 270 270 270 269 269 270 271 269 268 268 267 268 269 269 270 271 271 271 270 270 269 269 268 270 273 275 276 277 279 280 284 286 287 289 289 286 285
268 267 265 267 270 269 270 269 269 268 267 268 268 268 267 268 269 268 268 269 270 271 272 273 273 273 273 274 273 272 274 275 276 277 278 280 282 285 286 286 285 283 281
267 269 269 268 271 271 270 269 267 268 268 268 268 268 267 268 269 268 269 269 269 268 268 269 271 274 275 276 276 276 278 277 278 279 279 280 281 281 282 284 282 280 279
271 273 276 276 271 268 268 268 268 268 268 267 267 268 270 268 267 268 270 270 270 268 268 269 270 272 273 275 276 277 278 279 278 281 282 280 280 282 282 282 282 281 281
276 275 274 273 272 267 264 263 264 265 265 266 267 269 268 268 269 271 270 270 270 269 268 267 268 269 270 272 274 275 276 276 277 278 279 280 282 283 282 282 282 281 280
272 271 271 270 268 266 263 262 265 267 267 268 268 266 266 267 269 270 270 270 271 271 270 268 267 268 268 269 271 272 274 276 276 277 278 280 281 280 282 282 282 281 279
266 265 267 263 263 266 267 263 263 267 267 266 268 268 267 269 269 269 269 269 270 270 269 268 268 268 268 269 270 270 271 273 274 274 276 277 277 280 282 282 282 279 279
264 265 265 263 262 264 267 265 266 268 270 274 272 273 271 270 269 269 270 270 270 269 270 270 270 269 268 268 269 269 271 272 272 274 274 274 276 278 279 279 281 282 281
264 268 269 265 259 259 263 266 266 264 268 270 272 275 276 274 274 272 271 271 271 270 270 270 270 269 269 268 269 270 270 271 273 273 273 274 274 276 278 279 280 281 281
266 267 268 265 263 259 261 263 266 268 264 269 271 274 277 280 280 278 277 274 271 270 271 273 273 272 270 270 269 269 269 270 272 271 272 274 273 274 276 278 280 281 281
266 266 265 264 263 263 261 261 262 265 269 269 271 273 275 277 275 285 282 279 279 277 273 272 272 272 271 270 269 269 269 269 270 270 272 273 274 274 275 277 278 279 280
264 263 263 264 263 261 262 262 262 263 265 267 267 265 273 272 280 285 289 285 281 280 278 276 274 272 271 270 270 269 269 269 269 270 270 271 272 274 276 277 279 278 278
264 262 260 261 262 260 260 259 260 263 265 265 266 267 269 275 281 285 287 290 285 285 282 280 277 274 273 271 270 270 270 271 271 270 269 270 272 275 275 274 275 276 277